sat.trackr.live / text

‹ back to catalog

STARLINK-34565

NORAD 64686 · 2025-139Y

PAYLOAD ACTIVE UNKNOWN

§ Identity

Operator
Country
US
Launch date
2025-06-28
Launch site
AFETR
Launch vehicle
Mass (kg)
RCS (m²)

Purposes: comms

External: N2YO · Heavens-Above · Gunter

§ Orbital elements

Epoch: 2026-05-25T05:30:01.552032Z

Period
93.85 min
Inclination
53.1592°
Eccentricity
0.0000284
Mean motion
15.34397336 rev/d
Perigee alt
462.5 km
Apogee alt
462.9 km
Semi-major
6,840.8 km
B*
4.0246e-4
RAAN
130.7389°
Arg perigee
32.5787°
Mean anomaly
327.5233°
Rev number
5,201

§ Raw data

STARLINK-345651 64686U 25139Y   26145.22918463  .00013245  00000+0  40246-3 0  99962 64686  53.1592 130.7389 0000284  32.5787 327.5233 15.34397336 52011

JSON: /api/v1/satellites/64686 · /tle

For live sub-satellite position, see the globe view (requires WebGL).

§ Visibility from observer

Set your observer location to see the next 7 days of passes ≥ 10°. The values pass through the URL so the page stays shareable.

No JS? Fill the form by hand. The geolocation button needs JavaScript.